Hourly Weather Kitaevo

Today, 21 April, Wednesday

Time Temperature Precipitation Wind Pressure Humidity
00:00 -1°C° 1.1 mm 5 mps 744 mmHg 98%
01:00 -1°C° 1.3 mm 5 mps 743 mmHg 98%
02:00 0°C° 1.3 mm 5 mps 742 mmHg 99%
03:00 -1°C° 0 mm 4 mps 741 mmHg 99%
04:00 0°C° 1.5 mm 3 mps 740 mmHg 99%
05:00 0°C° 1.5 mm 3 mps 740 mmHg 99%
06:00 +1°C° 1.5 mm 2 mps 739 mmHg 99%
07:00 +1°C° 0.5 mm 2 mps 740 mmHg 99%
08:00 +1°C° 0.5 mm 2 mps 740 mmHg 99%
09:00 +1°C° 0.5 mm 2 mps 741 mmHg 99%
10:00 +1°C° 0 mm 3 mps 742 mmHg 99%
11:00 +1°C° 0 mm 3 mps 742 mmHg 98%
12:00 +1°C° 0 mm 3 mps 743 mmHg 98%
13:00 +2°C° 0 mm 3 mps 743 mmHg 96%
14:00 +2°C° 0 mm 3 mps 744 mmHg 94%
15:00 +3°C° 0 mm 3 mps 744 mmHg 92%
16:00 +3°C° 0 mm 3 mps 744 mmHg 92%
17:00 +3°C° 0 mm 3 mps 745 mmHg 93%
18:00 +3°C° 0 mm 3 mps 745 mmHg 93%
19:00 +3°C° 0 mm 3 mps 746 mmHg 94%
20:00 +2°C° 0 mm 3 mps 746 mmHg 94%
21:00 +2°C° 0 mm 3 mps 747 mmHg 94%
22:00 +2°C° 0 mm 3 mps 747 mmHg 93%
23:00 +2°C° 0 mm 3 mps 747 mmHg 93%

Tomorrow, 22 April, Thursday

Time Temperature Precipitation Wind Pressure Humidity
00:00 +2°C° 0 mm 3 mps 747 mmHg 92%
01:00 +2°C° 0.1 mm 3 mps 748 mmHg 94%
02:00 +2°C° 0.1 mm 3 mps 748 mmHg 95%
03:00 +2°C° 0.1 mm 3 mps 748 mmHg 97%
04:00 +2°C° 0 mm 3 mps 748 mmHg 96%
05:00 +2°C° 0 mm 3 mps 749 mmHg 95%
06:00 +2°C° 0 mm 3 mps 749 mmHg 95%
07:00 +3°C° 0 mm 4 mps 749 mmHg 91%
08:00 +4°C° 0 mm 4 mps 750 mmHg 87%
09:00 +6°C° 0 mm 5 mps 750 mmHg 84%
10:00 +7°C° 0 mm 5 mps 750 mmHg 79%
11:00 +8°C° 0 mm 5 mps 750 mmHg 73%
12:00 +9°C° 0 mm 6 mps 751 mmHg 68%
13:00 +9°C° 0 mm 6 mps 751 mmHg 70%
14:00 +9°C° 0 mm 6 mps 751 mmHg 72%
15:00 +9°C° 0 mm 6 mps 751 mmHg 74%
16:00 +9°C° 0 mm 5 mps 751 mmHg 74%
17:00 +10°C° 0 mm 5 mps 751 mmHg 74%
18:00 +11°C° 0 mm 4 mps 750 mmHg 74%
19:00 +10°C° 0 mm 4 mps 751 mmHg 78%
20:00 +8°C° 0 mm 4 mps 751 mmHg 81%
21:00 +7°C° 0 mm 4 mps 751 mmHg 85%
22:00 +7°C° 0 mm 4 mps 751 mmHg 85%
23:00 +7°C° 0 mm 4 mps 750 mmHg 85%

Day after tomorrow, 23 April, Friday

Time Temperature Precipitation Wind Pressure Humidity
00:00 +7°C° 0 mm 5 mps 750 mmHg 85%
01:00 +7°C° 0 mm 4 mps 750 mmHg 85%
02:00 +6°C° 0 mm 4 mps 750 mmHg 86%
03:00 +6°C° 0 mm 4 mps 750 mmHg 86%
04:00 +6°C° 0 mm 4 mps 750 mmHg 85%
05:00 +7°C° 0 mm 4 mps 750 mmHg 83%
06:00 +7°C° 0 mm 5 mps 750 mmHg 82%
07:00 +8°C° 0 mm 5 mps 750 mmHg 77%
08:00 +10°C° 0 mm 5 mps 750 mmHg 73%
09:00 +11°C° 0 mm 6 mps 750 mmHg 68%
10:00 +13°C° 0 mm 6 mps 750 mmHg 61%
11:00 +15°C° 0 mm 7 mps 750 mmHg 54%
12:00 +16°C° 0 mm 7 mps 750 mmHg 47%
13:00 +16°C° 0 mm 7 mps 750 mmHg 48%
14:00 +16°C° 0 mm 6 mps 749 mmHg 49%
15:00 +16°C° 0 mm 6 mps 749 mmHg 49%
16:00 +15°C° 0.1 mm 6 mps 749 mmHg 53%
17:00 +15°C° 0.1 mm 6 mps 749 mmHg 57%
18:00 +14°C° 0.1 mm 6 mps 748 mmHg 60%
19:00 +13°C° 0 mm 5 mps 748 mmHg 63%
20:00 +12°C° 0 mm 5 mps 748 mmHg 66%
21:00 +10°C° 0 mm 5 mps 748 mmHg 69%
22:00 +10°C° 0 mm 5 mps 747 mmHg 71%
23:00 +9°C° 0 mm 5 mps 747 mmHg 73%

24 April, Saturday

Time Temperature Precipitation Wind Pressure Humidity
00:00 +8°C° 0 mm 5 mps 747 mmHg 75%
01:00 +8°C° 0 mm 5 mps 746 mmHg 77%
02:00 +8°C° 0 mm 5 mps 745 mmHg 78%
03:00 +8°C° 0 mm 5 mps 745 mmHg 79%
04:00 +7°C° 0.1 mm 5 mps 745 mmHg 82%
05:00 +7°C° 0.1 mm 5 mps 744 mmHg 85%
06:00 +7°C° 0.1 mm 5 mps 744 mmHg 88%
07:00 +8°C° 0.2 mm 5 mps 743 mmHg 83%
08:00 +9°C° 0.2 mm 6 mps 743 mmHg 79%
09:00 +10°C° 0.2 mm 6 mps 742 mmHg 74%
10:00 +11°C° 0.4 mm 7 mps 742 mmHg 72%
11:00 +11°C° 0.4 mm 7 mps 741 mmHg 71%
12:00 +11°C° 0.4 mm 8 mps 741 mmHg 69%
13:00 +9°C° 0.5 mm 8 mps 741 mmHg 76%
14:00 +5°C° 0.5 mm 8 mps 741 mmHg 84%
15:00 +1°C° 0.5 mm 8 mps 741 mmHg 91%
16:00 +3°C° 0.1 mm 7 mps 742 mmHg 86%
17:00 +3°C° 0.1 mm 6 mps 742 mmHg 81%
18:00 +5°C° 0.1 mm 5 mps 743 mmHg 76%
19:00 +3°C° 0 mm 5 mps 743 mmHg 79%
20:00 +3°C° 0 mm 4 mps 743 mmHg 81%
21:00 +3°C° 0 mm 3 mps 743 mmHg 84%
22:00 +1°C° 0 mm 4 mps 743 mmHg 83%
23:00 +1°C° 0 mm 4 mps 743 mmHg 81%

25 April, Sunday

Time Temperature Precipitation Wind Pressure Humidity
00:00 +1°C° 0 mm 5 mps 743 mmHg 80%
01:00 0°C° 0 mm 5 mps 743 mmHg 82%
02:00 0°C° 0 mm 5 mps 743 mmHg 84%
03:00 0°C° 0 mm 5 mps 743 mmHg 85%
04:00 -1°C° 0 mm 5 mps 743 mmHg 86%
05:00 -1°C° 0 mm 5 mps 743 mmHg 87%
06:00 -1°C° 0 mm 5 mps 744 mmHg 88%
07:00 0°C° 0 mm 5 mps 744 mmHg 83%
08:00 +1°C° 0 mm 6 mps 744 mmHg 79%
09:00 +2°C° 0 mm 7 mps 744 mmHg 74%
10:00 +3°C° 0.2 mm 7 mps 744 mmHg 68%
11:00 +4°C° 0.2 mm 7 mps 744 mmHg 63%
12:00 +5°C° 0.2 mm 7 mps 745 mmHg 57%
13:00 +5°C° 0.1 mm 7 mps 745 mmHg 54%
14:00 +6°C° 0.1 mm 7 mps 745 mmHg 51%
15:00 +6°C° 0.1 mm 7 mps 745 mmHg 47%
16:00 +7°C° 0.1 mm 6 mps 745 mmHg 50%
17:00 +7°C° 0.1 mm 5 mps 745 mmHg 53%
18:00 +6°C° 0.1 mm 5 mps 745 mmHg 56%
19:00 +5°C° 0 mm 4 mps 745 mmHg 60%
20:00 +4°C° 0 mm 4 mps 745 mmHg 65%
21:00 +2°C° 0 mm 3 mps 745 mmHg 70%
22:00 +2°C° 0 mm 3 mps 745 mmHg 73%
23:00 +1°C° 0 mm 3 mps 745 mmHg 75%

26 April, Monday

Time Temperature Precipitation Wind Pressure Humidity
00:00 +1°C° 0 mm 3 mps 745 mmHg 77%
01:00 +1°C° 0 mm 3 mps 745 mmHg 80%
02:00 0°C° 0 mm 3 mps 745 mmHg 82%
03:00 0°C° 0 mm 3 mps 745 mmHg 85%
04:00 0°C° 0 mm 3 mps 745 mmHg 85%
05:00 -1°C° 0 mm 4 mps 745 mmHg 85%
06:00 -1°C° 0 mm 4 mps 745 mmHg 85%
07:00 0°C° 0 mm 4 mps 745 mmHg 78%
08:00 +2°C° 0 mm 5 mps 745 mmHg 70%
09:00 +3°C° 0 mm 6 mps 745 mmHg 63%
10:00 +4°C° 0.2 mm 6 mps 745 mmHg 58%
11:00 +5°C° 0.2 mm 6 mps 745 mmHg 53%
12:00 +6°C° 0.2 mm 7 mps 744 mmHg 48%
13:00 +6°C° 0.2 mm 7 mps 744 mmHg 49%
14:00 +5°C° 0.2 mm 7 mps 744 mmHg 50%
15:00 +5°C° 0.2 mm 7 mps 744 mmHg 51%
16:00 +5°C° 0.1 mm 7 mps 744 mmHg 54%
17:00 +4°C° 0.1 mm 7 mps 744 mmHg 57%
18:00 +4°C° 0.1 mm 6 mps 744 mmHg 60%
19:00 +3°C° 0 mm 6 mps 744 mmHg 65%
20:00 +2°C° 0 mm 5 mps 744 mmHg 69%
21:00 +1°C° 0 mm 4 mps 744 mmHg 74%
22:00 +1°C° 0.1 mm 4 mps 743 mmHg 81%
23:00 0°C° 0.1 mm 5 mps 743 mmHg 88%
Show more

We Need Your Consent

Meteoprog and our Service Providers may store and access personal data such as cookies, device identifiers or other similar technologies on your device and process such data to personalise content and ads, as well as provide social media features and to analyse the traffic.

  • Store and/or access information on your device

    Cookies, device identifiers or other information can be stored or accessed on your device for the purposes indicated above.

  • Personalised ads and content, ad and content measurement, audience insights, and products development

    Ads and content can be personalised based on a profile. More data can be added to better personalise ads and content. Ad and content performance can be measured. Insights about the audience who saw the ads and content can be derived. Such data can be used to develop or improve user’s experience, systems and software.

By clicking ‘I Agree’ you will allow the use of indicated cookies, device identifiers, web beacons or other similar technologies. Your settings can be changed in the browser on your device.

For certain purposes, legitimate interests may be relied on, rather than consent. You can read more about this in our Privacy and Cookie Policy.